Weather History for Columbus, GA

Change the Weather History Date:

Sunday, March 10, 2013

  Actual Average Record
Temperature  
Mean Temperature 64 °F 56 °F  
Max Temperature 76 °F 68 °F 89 °F (1974)
Min Temperature 52 °F 45 °F 26 °F (1950)
Degree Days  
Heating Degree Days 1 9  
Month to date heating degree days 153 100  
Since 1 July heating degree days 1509 1877  
Cooling Degree Days 0 1  
Month to date cooling degree days 0 3  
Year to date cooling degree days 25 7  
Growing Degree Days 13 (Base 50)    
Moisture  
Dew Point 39 °F    
Average Humidity 41    
Maximum Humidity 48    
Minimum Humidity 33    
Precipitation  
Precipitation 0.00 in 0.18 in 2.07 in (1952)
Month to date precipitation 0.08 1.79  
Year to date precipitation 15.77 10.08  
Snow  
Snow 0.00 in 0.00 in 0.00 in (2002)
Month to date snowfall 0.0 0.0  
Since 1 July snowfall 0.0 0.3  
Snow Depth -    
Sea Level Pressure  
Sea Level Pressure 30.11 in    
Wind  
Wind Speed 9 mph (SSE)    
Max Wind Speed 20 mph    
Max Gust Speed 25 mph    
Visibility 10 miles    
Events      
T = Trace of Precipitation, MM = Missing Value Source: NWS Daily Summary

Daily Weather History Graph

Daily Weather History Graph

Search for Another Location

Airport:

Trip Planner

Search our weather history database for the weather conditions in past years. The results will help you decide how hot, cold, wet, or windy it might be!

Date:

Astronomy

Mar. 10, 2013 Rise Set
Actual Time 7:56 AM EDT 7:44 PM EDT
Civil Twilight 7:31 AM EDT 8:08 PM EDT
Nautical Twilight 7:03 AM EDT 8:37 PM EDT
Astronomical Twilight 6:34 AM EDT 9:05 PM EDT
Moon 6:53 AM EDT (3/10) 6:51 PM EDT (3/10)
Length of Visible Light 12h 37m
Length of Day
11h 48m
Waning Crescent, 2% of the Moon is Illuminated
Mar 10
Waning Crescent
Mar 11
New
Mar 19
First Quarter
Mar 27
Full
Apr 3
Last Quarter

Hourly Weather History & Observations

Time (EDT) Temp. Dew Point Humidity Pressure Visibility Wind Dir Wind Speed Gust Speed Precip Events Conditions
12:51 AM 55.4 °F 33.8 °F 44% 30.14 in 10.0 mi ESE 10.4 mph - N/A   Clear
1:51 AM 57.0 °F 32.0 °F 39% 30.16 in 10.0 mi SE 5.8 mph - N/A   Clear
3:51 AM 57.0 °F 32.0 °F 39% 30.15 in 10.0 mi Calm Calm - N/A   Clear
4:51 AM 55.9 °F 35.1 °F 45% 30.15 in 10.0 mi SE 8.1 mph - N/A   Clear
5:51 AM 55.0 °F 32.0 °F 42% 30.17 in 10.0 mi SE 8.1 mph - N/A   Clear
6:51 AM 54.0 °F 30.9 °F 41% 30.14 in 10.0 mi ESE 11.5 mph - N/A   Clear
7:51 AM 53.6 °F 28.4 °F 38% 30.16 in 10.0 mi East 6.9 mph - N/A   Clear
8:51 AM 54.0 °F 32.0 °F 43% 30.17 in 10.0 mi ESE 5.8 mph - N/A   Clear
9:51 AM 57.0 °F 32.0 °F 39% 30.18 in 10.0 mi SE 8.1 mph - N/A   Clear
10:51 AM 61.0 °F 39.0 °F 44% 30.17 in 10.0 mi SE 13.8 mph - N/A   Clear
11:51 AM 66.0 °F 44.1 °F 45% 30.16 in 10.0 mi South 8.1 mph 16.1 mph N/A   Clear
12:51 PM 69.1 °F 46.0 °F 44% 30.14 in 10.0 mi SSE 15.0 mph 20.7 mph N/A   Clear
1:51 PM 71.1 °F 46.0 °F 41% 30.12 in 10.0 mi SSE 10.4 mph 23.0 mph N/A   Clear
2:51 PM 73.0 °F 46.0 °F 38% 30.10 in 10.0 mi SSW 12.7 mph 17.3 mph N/A   Clear
3:51 PM 73.9 °F 45.0 °F 35% 30.08 in 10.0 mi South 11.5 mph 16.1 mph N/A   Clear
4:51 PM 73.9 °F 43.0 °F 33% 30.07 in 10.0 mi South 9.2 mph - N/A   Clear
5:51 PM 73.9 °F 42.1 °F 32% 30.06 in 10.0 mi SSW 11.5 mph - N/A   Clear
6:51 PM 73.0 °F 44.1 °F 35% 30.04 in 10.0 mi South 16.1 mph - N/A   Clear
7:51 PM 70.0 °F 44.1 °F 39% 30.04 in 10.0 mi SSE 8.1 mph - N/A   Clear
8:51 PM 66.2 °F 42.8 °F 43% 30.06 in 10.0 mi SE 5.8 mph - N/A   Clear
9:51 PM 64.0 °F 43.0 °F 46% 30.05 in 10.0 mi SE 8.1 mph - N/A   Clear
10:51 PM 62.1 °F 43.0 °F 50% 30.06 in 10.0 mi SSE 4.6 mph - N/A   Clear
11:51 PM 62.1 °F 43.0 °F 50% 30.06 in 10.0 mi Calm Calm - N/A   Clear
12:51 AM 57.0 °F 44.1 °F 62% 30.06 in 10.0 mi ESE 4.6 mph - N/A   Clear